sat.trackr.live / text

‹ back to catalog

STARLINK-5089

NORAD 56148 · 2023-046BJ

PAYLOAD ACTIVE UNKNOWN

§ Identity

Operator
Country
US
Launch date
2023-03-29
Launch site
AFETR
Launch vehicle
Mass (kg)
RCS (m²)

Purposes: comms

External: N2YO · Heavens-Above · Gunter

§ Orbital elements

Epoch: 2026-09-20T21:04:27.935040Z

Period
94.27 min
Inclination
43.0044°
Eccentricity
0.0000852
Mean motion
15.27568895 rev/d
Perigee alt
482.5 km
Apogee alt
483.7 km
Semi-major
6,861.2 km
B*
1.5930e-6
RAAN
87.9648°
Arg perigee
263.1784°
Mean anomaly
96.8971°
Rev number
19,247

§ Raw data

STARLINK-50891 56148U 23046BJ  26263.87810110 -.00000218  00000+0  15930-5 0  99982 56148  43.0044  87.9648 0000852 263.1784  96.8971 15.27568895192478

JSON: /api/v1/satellites/56148 · /tle

For live sub-satellite position, see the globe view (requires WebGL).

§ Visibility from observer

Set your observer location to see the next 7 days of passes ≥ 10°. The values pass through the URL so the page stays shareable.

No JS? Fill the form by hand. The geolocation button needs JavaScript.